Time,TemperatureF,DewpointF,PressureIn,WindDirection,WindDirectionDegrees,WindSpeedMPH,WindSpeedGustMPH,Humidity,HourlyPrecipIn,Conditions,Clouds,dailyrainin,SolarRadiationWatts/m^2,SoftwareType,DateUTC
2013-05-17 00:01:00,61.6,58.9,29.82,SE,140,0.0,0.0,91,0.00,SCT,,0.00,0.0,WeatherDisplay:10.37,2013-05-17 05:01:00,
2013-05-17 00:06:00,61.6,59.3,29.82,SE,140,0.0,0.0,92,0.00,SCT,,0.00,0.0,WeatherDisplay:10.37,2013-05-17 05:06:00,
2013-05-17 00:11:00,61.5,59.2,29.82,SE,140,0.0,0.0,92,0.00,SCT,,0.00,0.0,WeatherDisplay:10.37,2013-05-17 05:11:00,
2013-05-17 00:16:00,61.4,59.1,29.82,SE,140,0.0,0.0,92,0.00,SCT,,0.00,0.0,WeatherDisplay:10.37,2013-05-17 05:16:00,
2013-05-17 00:21:00,61.2,58.9,29.83,SE,140,0.0,0.0,92,0.00,SCT,,0.00,0.0,WeatherDisplay:10.37,2013-05-17 05:21:00,
2013-05-17 00:26:00,61.2,59.2,29.83,SE,140,0.0,0.0,93,0.00,SCT,,0.00,0.0,WeatherDisplay:10.37,2013-05-17 05:26:00,
2013-05-17 00:31:00,61.2,59.2,29.83,SE,140,0.0,0.0,93,0.00,SCT,,0.00,0.0,WeatherDisplay:10.37,2013-05-17 05:31:00,
2013-05-17 00:36:00,61.1,59.1,29.82,SE,140,0.0,0.0,93,0.00,SCT,,0.00,0.0,WeatherDisplay:10.37,2013-05-17 05:36:00,
2013-05-17 00:41:00,60.8,58.8,29.83,SE,140,0.0,0.0,93,0.00,SCT,,0.00,0.0,WeatherDisplay:10.37,2013-05-17 05:41:00,
2013-05-17 00:46:00,60.8,59.1,29.83,SE,140,0.0,0.0,94,0.00,SCT,,0.00,0.0,WeatherDisplay:10.37,2013-05-17 05:46:00,
2013-05-17 00:51:00,60.8,59.1,29.82,SE,140,0.0,0.0,94,0.00,SCT,,0.00,0.0,WeatherDisplay:10.37,2013-05-17 05:51:00,
2013-05-17 00:56:00,60.8,59.1,29.82,SE,140,0.0,0.0,94,0.00,SCT,,0.00,0.0,WeatherDisplay:10.37,2013-05-17 05:56:00,
2013-05-17 01:01:00,60.6,58.9,29.83,SE,140,0.0,0.0,94,0.00,SCT,,0.00,0.0,WeatherDisplay:10.37,2013-05-17 06:01:00,
2013-05-17 01:06:00,60.5,58.8,29.82,SE,140,0.0,0.0,94,0.00,SCT,,0.00,0.0,WeatherDisplay:10.37,2013-05-17 06:06:00,
2013-05-17 01:11:00,60.4,58.7,29.82,SE,140,0.0,0.0,94,0.00,SCT,,0.00,0.0,WeatherDisplay:10.37,2013-05-17 06:11:00,
2013-05-17 01:16:00,60.4,58.7,29.82,SE,140,0.0,0.0,94,0.00,SCT,,0.00,0.0,WeatherDisplay:10.37,2013-05-17 06:16:00,
2013-05-17 01:21:00,60.3,58.6,29.82,SE,140,0.0,0.0,94,0.00,SCT,,0.00,0.0,WeatherDisplay:10.37,2013-05-17 06:21:00,
2013-05-17 01:26:00,60.1,58.4,29.82,SE,140,0.0,0.0,94,0.00,SCT,,0.00,0.0,WeatherDisplay:10.37,2013-05-17 06:26:00,
2013-05-17 01:31:00,60.0,58.3,29.82,SE,140,0.0,0.0,94,0.00,SCT,,0.00,0.0,WeatherDisplay:10.37,2013-05-17 06:31:00,
2013-05-17 01:36:00,59.8,58.1,29.82,SE,140,0.0,0.0,94,0.00,SCT,,0.00,0.0,WeatherDisplay:10.37,2013-05-17 06:36:00,
2013-05-17 01:41:00,59.6,57.9,29.81,SE,140,0.0,0.0,94,0.00,SCT,,0.00,0.0,WeatherDisplay:10.37,2013-05-17 06:41:00,
2013-05-17 01:46:00,59.6,58.2,29.81,SE,140,0.0,0.0,95,0.00,SCT,,0.00,0.0,WeatherDisplay:10.37,2013-05-17 06:46:00,
2013-05-17 01:51:00,59.4,57.7,29.81,SE,140,0.0,0.0,94,0.00,SCT,,0.00,0.0,WeatherDisplay:10.37,2013-05-17 06:51:00,
2013-05-17 01:56:00,59.4,58.0,29.81,SE,140,0.0,0.0,95,0.00,SCT,,0.00,0.0,WeatherDisplay:10.37,2013-05-17 06:56:00,
2013-05-17 02:01:00,59.3,57.9,29.81,SE,140,0.0,0.0,95,0.00,SCT,,0.00,0.0,WeatherDisplay:10.37,2013-05-17 07:01:00,
2013-05-17 02:06:00,59.3,57.9,29.81,SE,140,0.0,0.0,95,0.00,SCT,,0.00,0.0,WeatherDisplay:10.37,2013-05-17 07:06:00,
2013-05-17 02:11:00,59.1,57.7,29.81,SE,140,0.0,0.0,95,0.00,FEW,,0.00,0.0,WeatherDisplay:10.37,2013-05-17 07:11:00,
2013-05-17 02:16:00,59.0,57.6,29.81,SE,140,0.0,0.0,95,0.00,FEW,,0.00,0.0,WeatherDisplay:10.37,2013-05-17 07:16:00,
2013-05-17 02:21:00,58.9,57.5,29.80,SE,140,0.0,0.0,95,0.00,FEW,,0.00,0.0,WeatherDisplay:10.37,2013-05-17 07:21:00,
2013-05-17 02:26:00,58.8,57.4,29.80,SE,140,0.0,0.0,95,0.00,FEW,,0.00,0.0,WeatherDisplay:10.37,2013-05-17 07:26:00,
2013-05-17 02:31:00,58.7,57.6,29.80,SE,140,0.0,0.3,96,0.00,FEW,,0.00,0.0,WeatherDisplay:10.37,2013-05-17 07:31:00,
2013-05-17 02:36:00,58.7,57.6,29.80,SE,142,2.3,2.3,96,0.00,FEW,,0.00,0.0,WeatherDisplay:10.37,2013-05-17 07:36:00,
2013-05-17 02:41:00,58.9,57.8,29.80,SE,142,0.0,0.0,96,0.00,FEW,,0.00,0.0,WeatherDisplay:10.37,2013-05-17 07:41:00,
2013-05-17 02:46:00,59.0,58.2,29.79,SE,142,0.0,0.0,97,0.00,FEW,,0.00,0.0,WeatherDisplay:10.37,2013-05-17 07:46:00,
2013-05-17 02:51:00,59.2,58.3,29.79,SE,142,0.0,0.0,97,0.00,FEW,,0.00,0.0,WeatherDisplay:10.37,2013-05-17 07:51:00,
2013-05-17 02:56:00,59.5,58.6,29.78,SE,142,1.2,0.0,97,0.00,FEW,,0.00,0.0,WeatherDisplay:10.37,2013-05-17 07:56:00,
2013-05-17 03:01:00,59.8,58.9,29.78,SE,143,0.0,0.2,97,0.00,FEW,,0.00,0.0,WeatherDisplay:10.37,2013-05-17 08:01:00,
2013-05-17 03:06:00,60.0,59.1,29.79,SE,144,1.0,1.0,97,0.00,FEW,,0.00,0.0,WeatherDisplay:10.37,2013-05-17 08:06:00,
2013-05-17 03:11:00,60.1,59.2,29.78,SE,144,1.2,0.0,97,0.00,FEW,,0.00,0.0,WeatherDisplay:10.37,2013-05-17 08:11:00,
2013-05-17 03:16:00,60.3,59.4,29.78,SSW,202,1.0,0.0,97,0.00,FEW,,0.00,0.0,WeatherDisplay:10.37,2013-05-17 08:16:00,
2013-05-17 03:21:00,60.3,59.2,29.78,SSE,151,2.3,2.3,96,0.00,FEW,,0.00,0.0,WeatherDisplay:10.37,2013-05-17 08:21:00,
2013-05-17 03:26:00,60.4,59.3,29.78,SE,137,1.0,1.0,96,0.00,FEW,,0.00,0.0,WeatherDisplay:10.37,2013-05-17 08:26:00,
2013-05-17 03:31:00,60.5,59.4,29.78,SSE,153,1.2,1.2,96,0.00,FEW,,0.00,0.0,WeatherDisplay:10.37,2013-05-17 08:31:00,
2013-05-17 03:36:00,60.6,59.5,29.78,SSE,165,3.5,3.5,96,0.00,FEW,,0.00,0.0,WeatherDisplay:10.37,2013-05-17 08:36:00,
2013-05-17 03:41:00,60.7,59.6,29.79,SE,146,3.5,3.5,96,0.00,FEW,,0.00,0.0,WeatherDisplay:10.37,2013-05-17 08:41:00,
2013-05-17 03:46:00,60.7,59.6,29.79,South,177,0.0,0.0,96,0.00,FEW,,0.00,0.0,WeatherDisplay:10.37,2013-05-17 08:46:00,
2013-05-17 03:51:00,60.8,59.7,29.79,SSE,161,1.2,0.0,96,0.00,FEW,,0.00,0.0,WeatherDisplay:10.37,2013-05-17 08:51:00,
2013-05-17 03:56:00,60.9,59.8,29.80,SE,144,3.5,3.5,96,0.00,FEW,,0.00,0.0,WeatherDisplay:10.37,2013-05-17 08:56:00,
2013-05-17 04:01:00,60.9,59.8,29.80,SSE,154,1.2,1.2,96,0.00,FEW,,0.00,0.0,WeatherDisplay:10.37,2013-05-17 09:01:00,
2013-05-17 04:06:00,61.0,59.9,29.80,SSW,205,3.5,3.5,96,0.00,FEW,,0.00,0.0,WeatherDisplay:10.37,2013-05-17 09:06:00,
2013-05-17 04:11:00,61.0,59.9,29.80,South,180,3.5,0.0,96,0.00,SCT,,0.00,0.0,WeatherDisplay:10.37,2013-05-17 09:11:00,
2013-05-17 04:16:00,60.9,59.8,29.80,SSE,167,2.3,2.3,96,0.00,SCT,,0.00,0.0,WeatherDisplay:10.37,2013-05-17 09:16:00,
2013-05-17 04:21:00,60.9,59.8,29.81,South,171,4.6,4.6,96,0.00,SCT,,0.00,0.0,WeatherDisplay:10.37,2013-05-17 09:21:00,
2013-05-17 04:26:00,60.9,59.8,29.81,South,178,2.3,2.3,96,0.00,SCT,,0.00,0.0,WeatherDisplay:10.37,2013-05-17 09:26:00,
2013-05-17 04:31:00,60.8,59.7,29.81,South,178,0.0,0.3,96,0.00,SCT,,0.00,0.0,WeatherDisplay:10.37,2013-05-17 09:31:00,
2013-05-17 04:36:00,60.6,59.5,29.81,South,178,2.3,0.0,96,0.00,SCT,,0.00,0.0,WeatherDisplay:10.37,2013-05-17 09:36:00,
2013-05-17 04:41:00,60.5,59.4,29.81,SSE,168,2.3,2.3,96,0.00,SCT,,0.00,0.0,WeatherDisplay:10.37,2013-05-17 09:41:00,
2013-05-17 04:46:00,60.3,58.9,29.81,SE,146,2.3,0.0,95,0.00,SCT,,0.00,0.0,WeatherDisplay:10.37,2013-05-17 09:46:00,
2013-05-17 04:51:00,60.2,58.8,29.81,SE,146,1.2,0.0,95,0.00,SCT,,0.00,0.0,WeatherDisplay:10.37,2013-05-17 09:51:00,
2013-05-17 04:56:00,60.0,58.6,29.81,SSE,147,2.3,2.3,95,0.00,SCT,,0.00,0.0,WeatherDisplay:10.37,2013-05-17 09:56:00,
2013-05-17 05:01:00,59.9,58.8,29.81,SSE,147,1.2,0.0,96,0.00,SCT,,0.00,0.0,WeatherDisplay:10.37,2013-05-17 10:01:00,
2013-05-17 05:06:00,59.7,58.6,29.81,SSE,147,1.2,1.2,96,0.00,SCT,,0.00,0.0,WeatherDisplay:10.37,2013-05-17 10:06:00,
2013-05-17 05:11:00,59.6,58.5,29.81,SSE,147,0.0,0.0,96,0.00,CLR,,0.00,0.0,WeatherDisplay:10.37,2013-05-17 10:11:00,
2013-05-17 05:16:00,59.5,58.4,29.81,SSE,149,1.2,1.2,96,0.00,CLR,,0.00,0.0,WeatherDisplay:10.37,2013-05-17 10:16:00,
2013-05-17 05:21:00,59.5,58.4,29.81,SSE,149,0.0,0.0,96,0.00,CLR,,0.00,0.0,WeatherDisplay:10.37,2013-05-17 10:21:00,
2013-05-17 05:26:00,59.4,58.3,29.81,SSE,152,3.5,3.5,96,0.00,CLR,,0.00,0.0,WeatherDisplay:10.37,2013-05-17 10:26:00,
2013-05-17 05:31:00,59.3,58.2,29.81,SSE,152,0.0,0.0,96,0.00,CLR,,0.00,0.0,WeatherDisplay:10.37,2013-05-17 10:31:00,
2013-05-17 05:36:00,59.1,58.0,29.82,SSE,152,0.0,0.0,96,0.00,CLR,,0.00,0.0,WeatherDisplay:10.37,2013-05-17 10:36:00,
2013-05-17 05:41:00,59.0,57.9,29.82,SSE,152,0.0,0.0,96,0.00,CLR,,0.00,0.0,WeatherDisplay:10.37,2013-05-17 10:41:00,
2013-05-17 05:46:00,58.8,57.7,29.82,SSE,152,0.0,0.0,96,0.00,CLR,,0.00,0.0,WeatherDisplay:10.37,2013-05-17 10:46:00,
2013-05-17 05:51:00,58.6,57.5,29.82,SSE,152,0.0,0.0,96,0.00,CLR,,0.00,0.0,WeatherDisplay:10.37,2013-05-17 10:51:00,
2013-05-17 05:56:00,58.5,57.4,29.82,SSE,152,0.0,0.0,96,0.00,CLR,,0.00,0.0,WeatherDisplay:10.37,2013-05-17 10:56:00,
2013-05-17 06:01:00,58.5,57.4,29.82,SSE,152,0.0,0.0,96,0.00,CLR,,0.00,0.0,WeatherDisplay:10.37,2013-05-17 11:01:00,
2013-05-17 06:06:00,58.3,57.5,29.82,SSE,152,0.0,0.0,97,0.00,CLR,,0.00,0.0,WeatherDisplay:10.37,2013-05-17 11:06:00,
2013-05-17 06:11:00,58.2,57.4,29.83,SSE,152,0.0,0.0,97,0.00,CLR,,0.00,0.0,WeatherDisplay:10.37,2013-05-17 11:11:00,
2013-05-17 06:16:00,58.1,57.3,29.83,SSE,152,0.0,0.0,97,0.00,CLR,,0.00,0.0,WeatherDisplay:10.37,2013-05-17 11:16:00,
2013-05-17 06:21:00,58.0,57.2,29.83,SSE,152,0.0,0.0,97,0.00,SCT,,0.00,5.0,WeatherDisplay:10.37,2013-05-17 11:21:00,
2013-05-17 06:26:00,57.9,57.1,29.83,SSE,152,0.0,0.2,97,0.00,BKN,,0.00,7.0,WeatherDisplay:10.37,2013-05-17 11:26:00,
2013-05-17 06:31:00,57.8,57.0,29.84,SSE,152,1.2,0.0,97,0.00,BKN,,0.00,11.0,WeatherDisplay:10.37,2013-05-17 11:31:00,
2013-05-17 06:36:00,57.8,57.0,29.83,SSE,152,0.0,0.0,97,0.00,BKN,,0.00,14.0,WeatherDisplay:10.37,2013-05-17 11:36:00,
2013-05-17 06:41:00,58.0,57.4,29.84,SSE,152,0.0,0.0,98,0.00,BKN,,0.00,19.0,WeatherDisplay:10.37,2013-05-17 11:41:00,
2013-05-17 06:46:00,58.3,57.7,29.84,SSE,152,0.0,0.0,98,0.00,BKN,,0.00,26.0,WeatherDisplay:10.37,2013-05-17 11:46:00,
2013-05-17 06:51:00,58.6,58.0,29.84,SSE,152,0.0,0.0,98,0.00,BKN,,0.00,33.0,WeatherDisplay:10.37,2013-05-17 11:51:00,
2013-05-17 06:56:00,59.1,58.5,29.84,SSE,153,0.0,0.0,98,0.00,BKN,,0.00,39.0,WeatherDisplay:10.37,2013-05-17 11:56:00,
2013-05-17 07:01:00,59.5,59.2,29.84,SSE,153,0.0,0.1,99,0.00,BKN,,0.00,40.0,WeatherDisplay:10.37,2013-05-17 12:01:00,
2013-05-17 07:06:00,59.7,59.4,29.85,SSE,153,0.0,0.0,99,0.00,BKN,,0.00,35.0,WeatherDisplay:10.37,2013-05-17 12:06:00,
2013-05-17 07:11:00,59.9,59.6,29.85,SSE,153,0.0,0.0,99,0.00,BKN,,0.00,44.0,WeatherDisplay:10.37,2013-05-17 12:11:00,
2013-05-17 07:16:00,60.0,59.7,29.85,SSE,153,0.0,0.1,99,0.00,BKN,,0.00,39.0,WeatherDisplay:10.37,2013-05-17 12:16:00,
2013-05-17 07:21:00,60.2,59.9,29.85,SSE,153,0.0,0.0,99,0.00,BKN,,0.00,54.0,WeatherDisplay:10.37,2013-05-17 12:21:00,
2013-05-17 07:26:00,60.3,60.0,29.85,SSE,153,0.0,0.0,99,0.00,BKN,,0.00,47.0,WeatherDisplay:10.37,2013-05-17 12:26:00,
2013-05-17 07:31:00,60.4,59.8,29.86,SSE,153,0.0,0.0,98,0.00,BKN,,0.00,63.0,WeatherDisplay:10.37,2013-05-17 12:31:00,
2013-05-17 07:36:00,60.4,60.1,29.86,SSE,153,1.2,0.0,99,0.00,BKN,,0.00,69.0,WeatherDisplay:10.37,2013-05-17 12:36:00,
2013-05-17 07:41:00,60.5,60.2,29.86,SSE,153,0.0,0.2,99,0.00,BKN,,0.00,65.0,WeatherDisplay:10.37,2013-05-17 12:41:00,
2013-05-17 07:46:00,60.6,60.3,29.86,SSE,153,0.0,0.0,99,0.00,BKN,,0.00,67.0,WeatherDisplay:10.37,2013-05-17 12:46:00,
2013-05-17 07:51:00,60.7,60.1,29.87,SSE,153,1.2,0.0,98,0.00,BKN,,0.00,83.0,WeatherDisplay:10.37,2013-05-17 12:51:00,
2013-05-17 07:56:00,60.9,60.3,29.87,SSE,153,1.0,1.0,98,0.00,BKN,,0.00,86.0,WeatherDisplay:10.37,2013-05-17 12:56:00,
2013-05-17 08:01:00,61.1,60.8,29.87,SSE,153,0.0,0.0,99,0.00,BKN,,0.00,105.0,WeatherDisplay:10.37,2013-05-17 13:01:00,
2013-05-17 08:06:00,61.2,60.9,29.87,SSE,153,1.0,1.0,99,0.00,BKN,,0.00,120.0,WeatherDisplay:10.37,2013-05-17 13:06:00,
2013-05-17 08:11:00,61.3,61.0,29.87,SSE,153,0.0,0.0,99,0.00,BKN,,0.00,155.0,WeatherDisplay:10.37,2013-05-17 13:11:00,
2013-05-17 08:16:00,61.4,61.1,29.87,SSE,153,0.0,0.0,99,0.00,BKN,,0.00,116.0,WeatherDisplay:10.37,2013-05-17 13:16:00,
2013-05-17 08:21:00,61.5,60.9,29.87,SSE,153,0.0,0.0,98,0.00,BKN,,0.00,125.0,WeatherDisplay:10.37,2013-05-17 13:21:00,
2013-05-17 08:26:00,61.6,61.3,29.87,SSE,153,0.0,0.0,99,0.00,BKN,,0.00,160.0,WeatherDisplay:10.37,2013-05-17 13:26:00,
2013-05-17 08:31:00,61.8,61.5,29.87,SSE,153,0.0,0.1,99,0.00,BKN,,0.00,121.0,WeatherDisplay:10.37,2013-05-17 13:31:00,
2013-05-17 08:36:00,62.1,61.8,29.87,SE,132,2.3,2.3,99,0.00,BKN,,0.00,156.0,WeatherDisplay:10.37,2013-05-17 13:36:00,
2013-05-17 08:41:00,62.2,61.6,29.87,SE,132,1.2,0.0,98,0.00,BKN,,0.00,174.0,WeatherDisplay:10.37,2013-05-17 13:41:00,
2013-05-17 08:46:00,62.4,62.1,29.88,SE,132,1.2,1.2,99,0.00,BKN,,0.00,214.0,WeatherDisplay:10.37,2013-05-17 13:46:00,
2013-05-17 08:51:00,62.6,62.0,29.87,SE,132,0.0,0.0,98,0.00,BKN,,0.00,178.0,WeatherDisplay:10.37,2013-05-17 13:51:00,
2013-05-17 08:56:00,62.8,62.2,29.87,SE,132,1.2,1.2,98,0.00,BKN,,0.00,234.0,WeatherDisplay:10.37,2013-05-17 13:56:00,
2013-05-17 09:01:00,63.2,62.6,29.87,SE,132,0.0,0.0,98,0.00,BKN,,0.00,274.0,WeatherDisplay:10.37,2013-05-17 14:01:00,
2013-05-17 09:06:00,63.8,63.2,29.87,SE,134,3.5,3.5,98,0.00,BKN,,0.00,302.0,WeatherDisplay:10.37,2013-05-17 14:06:00,
2013-05-17 09:11:00,64.3,63.7,29.87,SE,133,1.2,0.0,98,0.00,BKN,,0.00,445.0,WeatherDisplay:10.37,2013-05-17 14:11:00,
2013-05-17 09:16:00,64.8,63.9,29.87,SE,133,1.2,1.2,97,0.00,BKN,,0.00,251.0,WeatherDisplay:10.37,2013-05-17 14:16:00,
2013-05-17 09:21:00,65.2,63.7,29.87,SE,134,2.0,2.0,95,0.00,BKN,,0.00,123.0,WeatherDisplay:10.37,2013-05-17 14:21:00,
2013-05-17 09:26:00,65.9,63.8,29.87,SE,136,1.2,0.0,93,0.00,BKN,,0.00,267.0,WeatherDisplay:10.37,2013-05-17 14:26:00,
2013-05-17 09:31:00,66.6,64.2,29.87,SE,136,1.2,1.2,92,0.00,BKN,,0.00,274.0,WeatherDisplay:10.37,2013-05-17 14:31:00,
2013-05-17 09:36:00,67.4,64.7,29.87,SE,138,2.3,0.0,91,0.00,BKN,,0.00,374.0,WeatherDisplay:10.37,2013-05-17 14:36:00,
2013-05-17 09:41:00,68.1,64.7,29.87,ENE,72,1.2,1.2,89,0.00,BKN,,0.00,197.0,WeatherDisplay:10.37,2013-05-17 14:41:00,
2013-05-17 09:46:00,68.9,65.2,29.87,ENE,78,2.0,2.0,88,0.00,BKN,,0.00,464.0,WeatherDisplay:10.37,2013-05-17 14:46:00,
2013-05-17 09:51:00,69.3,65.6,29.86,ENE,78,2.3,0.0,88,0.00,BKN,,0.00,102.0,WeatherDisplay:10.37,2013-05-17 14:51:00,
2013-05-17 09:56:00,69.8,65.4,29.87,SSE,156,3.5,3.5,86,0.00,BKN,,0.00,93.0,WeatherDisplay:10.37,2013-05-17 14:56:00,
2013-05-17 10:01:00,70.2,65.5,29.87,South,188,1.2,0.0,85,0.00,BKN,,0.00,95.0,WeatherDisplay:10.37,2013-05-17 15:01:00,
2013-05-17 10:06:00,70.4,64.6,29.87,South,186,5.8,5.8,82,0.00,BKN,,0.00,188.0,WeatherDisplay:10.37,2013-05-17 15:06:00,
2013-05-17 10:11:00,70.7,64.9,29.86,East,96,4.6,4.6,82,0.00,BKN,,0.00,223.0,WeatherDisplay:10.37,2013-05-17 15:11:00,
2013-05-17 10:16:00,71.1,65.7,29.86,ESE,109,2.3,0.0,83,0.00,BKN,,0.00,606.0,WeatherDisplay:10.37,2013-05-17 15:16:00,
2013-05-17 10:21:00,71.5,65.0,29.86,ENE,76,4.6,4.6,80,0.00,BKN,,0.00,214.0,WeatherDisplay:10.37,2013-05-17 15:21:00,
2013-05-17 10:26:00,71.6,64.7,29.86,SE,129,1.2,1.2,79,0.00,BKN,,0.00,193.0,WeatherDisplay:10.37,2013-05-17 15:26:00,
2013-05-17 10:31:00,71.9,65.0,29.86,SSE,155,2.3,2.3,79,0.00,BKN,,0.00,251.0,WeatherDisplay:10.37,2013-05-17 15:31:00,
2013-05-17 10:36:00,72.1,64.9,29.85,East,80,5.0,5.0,78,0.00,BKN,,0.00,246.0,WeatherDisplay:10.37,2013-05-17 15:36:00,
2013-05-17 10:41:00,72.2,65.0,29.85,SE,136,4.6,4.6,78,0.00,BKN,,0.00,394.0,WeatherDisplay:10.37,2013-05-17 15:41:00,
2013-05-17 10:46:00,72.4,64.8,29.85,ENE,78,3.5,3.5,77,0.00,BKN,,0.00,325.0,WeatherDisplay:10.37,2013-05-17 15:46:00,
2013-05-17 10:51:00,72.6,64.2,29.85,ENE,60,6.9,6.9,75,0.00,BKN,,0.00,111.0,WeatherDisplay:10.37,2013-05-17 15:51:00,
2013-05-17 10:56:00,72.8,64.0,29.85,East,88,5.8,5.8,74,0.00,BKN,,0.00,165.0,WeatherDisplay:10.37,2013-05-17 15:56:00,
2013-05-17 11:01:00,73.1,64.7,29.85,SE,145,2.3,2.3,75,0.00,SCT,,0.00,100.0,WeatherDisplay:10.37,2013-05-17 16:01:00,
2013-05-17 11:06:00,73.3,64.1,29.85,East,81,4.6,4.6,73,0.00,SCT,,0.00,174.0,WeatherDisplay:10.37,2013-05-17 16:06:00,
2013-05-17 11:11:00,73.3,64.1,29.85,ESE,103,4.6,4.6,73,0.00,SCT,,0.00,109.0,WeatherDisplay:10.37,2013-05-17 16:11:00,
2013-05-17 11:16:00,73.5,64.7,29.85,ESE,111,6.9,6.9,74,0.00,SCT,,0.00,109.0,WeatherDisplay:10.37,2013-05-17 16:16:00,
2013-05-17 11:21:00,74.0,65.2,29.85,NE,41,3.5,3.5,74,0.00,SCT,,0.00,237.0,WeatherDisplay:10.37,2013-05-17 16:21:00,
2013-05-17 11:26:00,74.4,64.4,29.85,ESE,107,4.6,4.6,71,0.00,SCT,,0.00,476.0,WeatherDisplay:10.37,2013-05-17 16:26:00,
2013-05-17 11:31:00,74.6,64.6,29.85,ESE,123,5.8,5.8,71,0.00,SCT,,0.00,109.0,WeatherDisplay:10.37,2013-05-17 16:31:00,
2013-05-17 11:36:00,74.7,65.1,29.85,East,81,5.0,5.0,72,0.00,SCT,,0.00,113.0,WeatherDisplay:10.37,2013-05-17 16:36:00,
2013-05-17 11:41:00,74.7,64.7,29.85,East,80,5.0,5.0,71,0.00,SCT,,0.00,306.0,WeatherDisplay:10.37,2013-05-17 16:41:00,
2013-05-17 11:46:00,74.9,64.0,29.85,East,92,3.5,3.5,69,0.00,SCT,,0.00,221.0,WeatherDisplay:10.37,2013-05-17 16:46:00,
2013-05-17 11:51:00,75.1,65.1,29.85,ESE,112,3.5,3.5,71,0.00,SCT,,0.00,239.0,WeatherDisplay:10.37,2013-05-17 16:51:00,
2013-05-17 11:56:00,75.1,64.6,29.85,East,90,2.3,2.3,70,0.00,SCT,,0.00,290.0,WeatherDisplay:10.37,2013-05-17 16:56:00,
2013-05-17 12:01:00,75.3,64.8,29.85,East,88,3.5,3.5,70,0.00,SCT,,0.00,889.0,WeatherDisplay:10.37,2013-05-17 17:01:00,
2013-05-17 12:06:00,75.7,63.1,29.86,East,101,3.5,3.5,65,0.00,SCT,,0.00,914.0,WeatherDisplay:10.37,2013-05-17 17:06:00,
2013-05-17 12:11:00,75.9,64.2,29.86,SE,141,3.5,3.5,67,0.00,SCT,,0.00,904.0,WeatherDisplay:10.37,2013-05-17 17:11:00,
2013-05-17 12:16:00,76.4,64.6,29.85,East,89,4.6,4.6,67,0.00,SCT,,0.00,909.0,WeatherDisplay:10.37,2013-05-17 17:16:00,
2013-05-17 12:21:00,76.7,64.5,29.85,SE,132,4.6,4.6,66,0.00,SCT,,0.00,916.0,WeatherDisplay:10.37,2013-05-17 17:21:00,
2013-05-17 12:26:00,77.0,63.9,29.85,ESE,103,3.5,3.5,64,0.00,SCT,,0.00,923.0,WeatherDisplay:10.37,2013-05-17 17:26:00,
2013-05-17 12:31:00,77.0,63.4,29.85,NE,44,3.5,3.5,63,0.00,SCT,,0.00,933.0,WeatherDisplay:10.37,2013-05-17 17:31:00,
2013-05-17 12:36:00,77.2,65.0,29.85,SE,142,3.5,3.5,66,0.00,SCT,,0.00,939.0,WeatherDisplay:10.37,2013-05-17 17:36:00,
2013-05-17 12:41:00,77.7,65.0,29.85,NE,39,3.5,3.7,65,0.00,SCT,,0.00,935.0,WeatherDisplay:10.37,2013-05-17 17:41:00,
2013-05-17 12:46:00,77.8,63.3,29.85,ENE,73,8.1,8.1,61,0.00,SCT,,0.00,940.0,WeatherDisplay:10.37,2013-05-17 17:46:00,
2013-05-17 12:51:00,77.6,64.9,29.85,ENE,77,4.6,4.6,65,0.00,SCT,,0.00,939.0,WeatherDisplay:10.37,2013-05-17 17:51:00,
2013-05-17 12:56:00,77.5,64.8,29.85,East,88,6.9,6.9,65,0.00,SCT,,0.00,953.0,WeatherDisplay:10.37,2013-05-17 17:56:00,
2013-05-17 13:01:00,77.5,63.9,29.85,East,92,5.8,5.8,63,0.00,SCT,,0.00,951.0,WeatherDisplay:10.37,2013-05-17 18:01:00,
2013-05-17 13:06:00,77.8,63.7,29.84,East,82,3.5,3.5,62,0.00,SCT,,0.00,953.0,WeatherDisplay:10.37,2013-05-17 18:06:00,
2013-05-17 13:11:00,78.2,65.9,29.84,East,91,2.3,2.3,66,0.00,SCT,,0.00,951.0,WeatherDisplay:10.37,2013-05-17 18:11:00,
2013-05-17 13:16:00,78.6,65.4,29.84,East,82,5.8,5.8,64,0.00,SCT,,0.00,962.0,WeatherDisplay:10.37,2013-05-17 18:16:00,
2013-05-17 13:21:00,78.6,64.9,29.84,East,90,5.8,5.8,63,0.00,SCT,,0.00,963.0,WeatherDisplay:10.37,2013-05-17 18:21:00,
2013-05-17 13:26:00,78.6,65.8,29.84,ESE,117,8.1,8.1,65,0.00,SCT,,0.00,962.0,WeatherDisplay:10.37,2013-05-17 18:26:00,
2013-05-17 13:31:00,79.2,66.9,29.84,ESE,103,3.5,3.5,66,0.00,SCT,,0.00,967.0,WeatherDisplay:10.37,2013-05-17 18:31:00,
2013-05-17 13:36:00,79.5,64.9,29.84,SE,125,3.0,3.0,61,0.00,SCT,,0.00,958.0,WeatherDisplay:10.37,2013-05-17 18:36:00,
2013-05-17 13:41:00,79.6,65.9,29.84,South,171,5.8,5.8,63,0.00,SCT,,0.00,963.0,WeatherDisplay:10.37,2013-05-17 18:41:00,
2013-05-17 13:46:00,79.9,64.8,29.84,East,90,9.2,9.2,60,0.00,SCT,,0.00,962.0,WeatherDisplay:10.37,2013-05-17 18:46:00,
2013-05-17 13:51:00,80.2,65.5,29.84,SE,138,6.9,6.9,61,0.00,SCT,,0.00,958.0,WeatherDisplay:10.37,2013-05-17 18:51:00,
2013-05-17 13:56:00,80.4,65.7,29.84,East,86,2.3,2.3,61,0.00,SCT,,0.00,979.0,WeatherDisplay:10.37,2013-05-17 18:56:00,
2013-05-17 14:01:00,80.8,65.6,29.84,SE,132,4.6,4.6,60,0.00,SCT,,0.00,953.0,WeatherDisplay:10.37,2013-05-17 19:01:00,
2013-05-17 14:06:00,80.8,66.6,29.83,East,97,6.0,6.0,62,0.00,SCT,,0.00,958.0,WeatherDisplay:10.37,2013-05-17 19:06:00,
2013-05-17 14:11:00,80.6,65.4,29.83,South,175,9.2,9.2,60,0.00,SCT,,0.00,951.0,WeatherDisplay:10.37,2013-05-17 19:11:00,
2013-05-17 14:16:00,80.9,67.1,29.83,ESE,105,2.3,2.3,63,0.00,SCT,,0.00,983.0,WeatherDisplay:10.37,2013-05-17 19:16:00,
2013-05-17 14:21:00,80.8,66.6,29.83,ENE,76,4.6,4.6,62,0.00,SCT,,0.00,965.0,WeatherDisplay:10.37,2013-05-17 19:21:00,
2013-05-17 14:26:00,81.1,65.4,29.83,SE,142,4.0,4.0,59,0.00,SCT,,0.00,956.0,WeatherDisplay:10.37,2013-05-17 19:26:00,
2013-05-17 14:31:00,81.4,66.7,29.83,ESE,123,2.3,2.5,61,0.00,SCT,,0.00,1009.0,WeatherDisplay:10.37,2013-05-17 19:31:00,
2013-05-17 14:36:00,81.3,66.6,29.83,SSE,165,3.5,3.5,61,0.00,SCT,,0.00,990.0,WeatherDisplay:10.37,2013-05-17 19:36:00,
2013-05-17 14:41:00,81.7,67.4,29.83,SSW,192,3.5,3.5,62,0.00,SCT,,0.00,990.0,WeatherDisplay:10.37,2013-05-17 19:41:00,
2013-05-17 14:46:00,81.8,65.6,29.83,East,84,3.5,3.5,58,0.00,SCT,,0.00,953.0,WeatherDisplay:10.37,2013-05-17 19:46:00,
2013-05-17 14:51:00,81.6,65.4,29.82,East,92,3.5,3.5,58,0.00,SCT,,0.00,1023.0,WeatherDisplay:10.37,2013-05-17 19:51:00,
2013-05-17 14:56:00,81.4,66.2,29.82,East,82,6.9,6.9,60,0.00,SCT,,0.00,914.0,WeatherDisplay:10.37,2013-05-17 19:56:00,
2013-05-17 15:01:00,81.5,65.8,29.83,ESE,118,3.5,3.5,59,0.00,SCT,,0.00,923.0,WeatherDisplay:10.37,2013-05-17 20:01:00,
2013-05-17 15:06:00,81.8,65.6,29.82,East,83,5.0,5.0,58,0.00,SCT,,0.00,926.0,WeatherDisplay:10.37,2013-05-17 20:06:00,
2013-05-17 15:11:00,81.7,66.0,29.82,ESE,117,4.6,4.6,59,0.00,SCT,,0.00,902.0,WeatherDisplay:10.37,2013-05-17 20:11:00,
2013-05-17 15:16:00,81.5,67.2,29.82,ESE,103,5.8,5.8,62,0.00,SCT,,0.00,868.0,WeatherDisplay:10.37,2013-05-17 20:16:00,
2013-05-17 15:21:00,81.6,66.4,29.82,South,184,4.6,4.6,60,0.00,SCT,,0.00,902.0,WeatherDisplay:10.37,2013-05-17 20:21:00,
2013-05-17 15:26:00,81.7,65.5,29.82,ENE,71,6.9,6.9,58,0.00,SCT,,0.00,826.0,WeatherDisplay:10.37,2013-05-17 20:26:00,
2013-05-17 15:31:00,81.4,66.2,29.82,SSE,148,3.5,3.5,60,0.00,SCT,,0.00,877.0,WeatherDisplay:10.37,2013-05-17 20:31:00,
2013-05-17 15:36:00,81.4,66.2,29.82,SE,136,5.8,5.8,60,0.00,SCT,,0.00,874.0,WeatherDisplay:10.37,2013-05-17 20:36:00,
2013-05-17 15:41:00,81.8,66.1,29.81,ENE,73,6.9,6.9,59,0.00,SCT,,0.00,919.0,WeatherDisplay:10.37,2013-05-17 20:41:00,
2013-05-17 15:46:00,81.8,66.1,29.81,ENE,74,3.5,3.5,59,0.00,SCT,,0.00,288.0,WeatherDisplay:10.37,2013-05-17 20:46:00,
2013-05-17 15:51:00,81.3,66.1,29.81,ESE,121,5.8,5.8,60,0.00,SCT,,0.00,851.0,WeatherDisplay:10.37,2013-05-17 20:51:00,
2013-05-17 15:56:00,81.2,66.9,29.81,ESE,119,8.1,8.1,62,0.00,SCT,,0.00,777.0,WeatherDisplay:10.37,2013-05-17 20:56:00,
2013-05-17 16:01:00,81.6,66.8,29.81,SE,142,6.9,6.9,61,0.00,FEW,,0.00,798.0,WeatherDisplay:10.37,2013-05-17 21:01:00,
2013-05-17 16:06:00,81.9,66.6,29.81,SSW,202,4.6,4.6,60,0.00,FEW,,0.00,798.0,WeatherDisplay:10.37,2013-05-17 21:06:00,
2013-05-17 16:11:00,82.1,68.3,29.81,ESE,111,3.5,3.5,63,0.00,FEW,,0.00,788.0,WeatherDisplay:10.37,2013-05-17 21:11:00,
2013-05-17 16:16:00,82.4,67.1,29.81,South,186,5.8,5.8,60,0.00,FEW,,0.00,765.0,WeatherDisplay:10.37,2013-05-17 21:16:00,
2013-05-17 16:21:00,82.7,66.9,29.81,SE,143,4.0,4.0,59,0.00,FEW,,0.00,775.0,WeatherDisplay:10.37,2013-05-17 21:21:00,
2013-05-17 16:26:00,82.6,66.3,29.81,SE,126,7.0,7.0,58,0.00,FEW,,0.00,761.0,WeatherDisplay:10.37,2013-05-17 21:26:00,
2013-05-17 16:31:00,82.4,67.1,29.80,ESE,111,5.0,5.0,60,0.00,FEW,,0.00,761.0,WeatherDisplay:10.37,2013-05-17 21:31:00,
2013-05-17 16:36:00,82.3,66.0,29.80,SE,128,4.6,4.6,58,0.00,FEW,,0.00,712.0,WeatherDisplay:10.37,2013-05-17 21:36:00,
2013-05-17 16:41:00,82.6,66.3,29.80,ESE,103,3.5,3.6,58,0.00,FEW,,0.00,715.0,WeatherDisplay:10.37,2013-05-17 21:41:00,
2013-05-17 16:46:00,82.6,66.3,29.80,ESE,104,3.5,3.5,58,0.00,FEW,,0.00,696.0,WeatherDisplay:10.37,2013-05-17 21:46:00,
2013-05-17 16:51:00,82.3,66.0,29.80,SE,129,3.5,3.5,58,0.00,FEW,,0.00,645.0,WeatherDisplay:10.37,2013-05-17 21:51:00,
2013-05-17 16:56:00,82.1,66.4,29.80,ENE,78,3.5,3.5,59,0.00,FEW,,0.00,663.0,WeatherDisplay:10.37,2013-05-17 21:56:00,
2013-05-17 17:01:00,82.0,65.8,29.80,SSE,150,8.1,8.1,58,0.00,FEW,,0.00,650.0,WeatherDisplay:10.37,2013-05-17 22:01:00,
2013-05-17 17:06:00,82.0,66.3,29.80,SE,142,6.9,6.9,59,0.00,FEW,,0.00,635.0,WeatherDisplay:10.37,2013-05-17 22:06:00,
2013-05-17 17:11:00,81.8,66.1,29.80,SE,134,5.8,5.8,59,0.00,FEW,,0.00,149.0,WeatherDisplay:10.37,2013-05-17 22:11:00,
2013-05-17 17:16:00,81.8,67.0,29.80,SSW,194,3.5,4.0,61,0.00,FEW,,0.00,599.0,WeatherDisplay:10.37,2013-05-17 22:16:00,
2013-05-17 17:21:00,82.1,66.4,29.80,ESE,117,3.5,3.5,59,0.00,FEW,,0.00,633.0,WeatherDisplay:10.37,2013-05-17 22:21:00,
2013-05-17 17:26:00,82.2,66.4,29.80,SSE,159,5.0,5.0,59,0.00,FEW,,0.00,570.0,WeatherDisplay:10.37,2013-05-17 22:26:00,
2013-05-17 17:31:00,82.2,66.4,29.80,South,185,3.5,3.5,59,0.00,FEW,,0.00,552.0,WeatherDisplay:10.37,2013-05-17 22:31:00,
2013-05-17 17:36:00,82.2,66.4,29.79,SE,132,4.6,4.6,59,0.00,FEW,,0.00,536.0,WeatherDisplay:10.37,2013-05-17 22:36:00,
2013-05-17 17:41:00,82.3,67.5,29.79,East,98,3.5,3.5,61,0.00,FEW,,0.00,513.0,WeatherDisplay:10.37,2013-05-17 22:41:00,
2013-05-17 17:46:00,82.3,65.5,29.79,ESE,113,6.9,6.9,57,0.00,FEW,,0.00,497.0,WeatherDisplay:10.37,2013-05-17 22:46:00,
2013-05-17 17:51:00,82.0,65.8,29.79,ESE,110,4.0,4.0,58,0.00,FEW,,0.00,480.0,WeatherDisplay:10.37,2013-05-17 22:51:00,
2013-05-17 17:56:00,81.9,66.2,29.79,SSE,158,8.0,8.0,59,0.00,FEW,,0.00,461.0,WeatherDisplay:10.37,2013-05-17 22:56:00,
2013-05-17 18:01:00,81.7,66.0,29.79,SW,215,2.3,2.3,59,0.00,FEW,,0.00,443.0,WeatherDisplay:10.37,2013-05-17 23:01:00,
2013-05-17 18:06:00,81.4,65.7,29.79,SSE,149,4.0,4.0,59,0.00,FEW,,0.00,429.0,WeatherDisplay:10.37,2013-05-17 23:06:00,
2013-05-17 18:11:00,81.2,65.5,29.79,ENE,70,4.6,4.6,59,0.00,FEW,,0.00,323.0,WeatherDisplay:10.37,2013-05-17 23:11:00,
2013-05-17 18:16:00,80.9,65.7,29.79,East,94,4.6,4.6,60,0.00,FEW,,0.00,72.0,WeatherDisplay:10.37,2013-05-17 23:16:00,
2013-05-17 18:21:00,80.7,65.5,29.78,East,84,5.8,5.8,60,0.00,FEW,,0.00,72.0,WeatherDisplay:10.37,2013-05-17 23:21:00,
2013-05-17 18:26:00,80.5,65.8,29.79,SSE,147,3.5,3.5,61,0.00,FEW,,0.00,72.0,WeatherDisplay:10.37,2013-05-17 23:26:00,
2013-05-17 18:31:00,80.3,65.1,29.79,ESE,121,4.6,4.6,60,0.00,FEW,,0.00,69.0,WeatherDisplay:10.37,2013-05-17 23:31:00,
2013-05-17 18:36:00,80.1,65.4,29.79,SE,128,6.9,6.9,61,0.00,FEW,,0.00,69.0,WeatherDisplay:10.37,2013-05-17 23:36:00,
2013-05-17 18:41:00,79.9,65.2,29.79,East,88,5.8,5.8,61,0.00,FEW,,0.00,76.0,WeatherDisplay:10.37,2013-05-17 23:41:00,
2013-05-17 18:46:00,79.7,65.1,29.79,East,96,3.5,3.5,61,0.00,FEW,,0.00,67.0,WeatherDisplay:10.37,2013-05-17 23:46:00,
2013-05-17 18:51:00,79.5,65.3,29.79,ESE,119,3.5,3.5,62,0.00,FEW,,0.00,63.0,WeatherDisplay:10.37,2013-05-17 23:51:00,
2013-05-17 18:56:00,79.5,65.3,29.79,East,98,3.5,3.5,62,0.00,FEW,,0.00,62.0,WeatherDisplay:10.37,2013-05-17 23:56:00,
2013-05-17 19:01:00,79.4,65.2,29.79,ESE,102,2.3,2.3,62,0.00,FEW,,0.00,60.0,WeatherDisplay:10.37,2013-05-18 00:01:00,
2013-05-17 19:06:00,79.3,64.7,29.79,SE,132,6.9,6.9,61,0.00,FEW,,0.00,56.0,WeatherDisplay:10.37,2013-05-18 00:06:00,
2013-05-17 19:11:00,79.2,65.1,29.79,SSW,192,3.5,3.5,62,0.00,FEW,,0.00,56.0,WeatherDisplay:10.37,2013-05-18 00:11:00,
2013-05-17 19:16:00,79.1,65.0,29.79,SE,142,7.0,7.0,62,0.00,FEW,,0.00,54.0,WeatherDisplay:10.37,2013-05-18 00:16:00,
2013-05-17 19:21:00,79.0,65.3,29.79,SSE,153,6.9,6.9,63,0.00,FEW,,0.00,51.0,WeatherDisplay:10.37,2013-05-18 00:21:00,
2013-05-17 19:26:00,78.8,65.1,29.79,East,85,5.8,5.8,63,0.00,FEW,,0.00,49.0,WeatherDisplay:10.37,2013-05-18 00:26:00,
2013-05-17 19:31:00,78.7,65.0,29.79,SE,142,5.8,5.8,63,0.00,FEW,,0.00,49.0,WeatherDisplay:10.37,2013-05-18 00:31:00,
2013-05-17 19:36:00,78.5,64.9,29.79,SE,129,9.2,9.2,63,0.00,FEW,,0.00,42.0,WeatherDisplay:10.37,2013-05-18 00:36:00,
2013-05-17 19:41:00,78.3,65.1,29.79,ESE,107,3.5,3.5,64,0.00,FEW,,0.00,40.0,WeatherDisplay:10.37,2013-05-18 00:41:00,
2013-05-17 19:46:00,78.1,64.9,29.79,SE,136,3.5,3.5,64,0.00,FEW,,0.00,39.0,WeatherDisplay:10.37,2013-05-18 00:46:00,
2013-05-17 19:51:00,77.9,64.7,29.79,SE,126,3.5,3.5,64,0.00,FEW,,0.00,33.0,WeatherDisplay:10.37,2013-05-18 00:51:00,
2013-05-17 19:56:00,77.7,64.5,29.79,SE,143,4.0,4.0,64,0.00,FEW,,0.00,30.0,WeatherDisplay:10.37,2013-05-18 00:56:00,
2013-05-17 20:01:00,77.4,64.7,29.79,SE,130,4.6,4.6,65,0.00,FEW,,0.00,26.0,WeatherDisplay:10.37,2013-05-18 01:01:00,
2013-05-17 20:06:00,77.2,64.5,29.79,SSE,147,8.1,8.1,65,0.00,FEW,,0.00,21.0,WeatherDisplay:10.37,2013-05-18 01:06:00,
2013-05-17 20:11:00,76.9,64.7,29.79,SE,138,3.5,3.5,66,0.00,FEW,,0.00,18.0,WeatherDisplay:10.37,2013-05-18 01:11:00,
2013-05-17 20:16:00,76.7,64.5,29.79,SSE,152,1.2,1.2,66,0.00,FEW,,0.00,14.0,WeatherDisplay:10.37,2013-05-18 01:16:00,
2013-05-17 20:21:00,76.4,64.6,29.80,South,174,4.6,4.6,67,0.00,FEW,,0.00,11.0,WeatherDisplay:10.37,2013-05-18 01:21:00,
2013-05-17 20:26:00,76.1,64.8,29.80,SSE,148,1.2,1.2,68,0.00,FEW,,0.00,7.0,WeatherDisplay:10.37,2013-05-18 01:26:00,
2013-05-17 20:31:00,75.8,64.9,29.80,SSE,168,4.6,4.6,69,0.00,FEW,,0.00,0.0,WeatherDisplay:10.37,2013-05-18 01:31:00,
2013-05-17 20:36:00,75.5,64.6,29.80,ESE,102,7.0,7.0,69,0.00,FEW,,0.00,0.0,WeatherDisplay:10.37,2013-05-18 01:36:00,
2013-05-17 20:41:00,75.2,64.7,29.80,SE,135,2.3,2.3,70,0.00,FEW,,0.00,0.0,WeatherDisplay:10.37,2013-05-18 01:41:00,
2013-05-17 20:46:00,75.0,64.5,29.80,South,180,1.2,1.2,70,0.00,FEW,,0.00,0.0,WeatherDisplay:10.37,2013-05-18 01:46:00,
2013-05-17 20:51:00,74.7,64.7,29.80,SSE,168,3.5,3.5,71,0.00,FEW,,0.00,0.0,WeatherDisplay:10.37,2013-05-18 01:51:00,
2013-05-17 20:56:00,74.5,64.9,29.80,SSE,149,2.3,2.3,72,0.00,FEW,,0.00,0.0,WeatherDisplay:10.37,2013-05-18 01:56:00,
2013-05-17 21:01:00,74.2,65.0,29.79,SSE,168,3.5,3.5,73,0.00,SCT,,0.00,0.0,WeatherDisplay:10.37,2013-05-18 02:01:00,
2013-05-17 21:06:00,73.9,64.7,29.80,SE,139,3.5,3.5,73,0.00,SCT,,0.00,0.0,WeatherDisplay:10.37,2013-05-18 02:06:00,
2013-05-17 21:11:00,73.7,64.9,29.80,SE,132,1.0,0.0,74,0.00,SCT,,0.00,0.0,WeatherDisplay:10.37,2013-05-18 02:11:00,
2013-05-17 21:16:00,73.4,64.6,29.80,SE,132,1.2,0.0,74,0.00,SCT,,0.00,0.0,WeatherDisplay:10.37,2013-05-18 02:16:00,
2013-05-17 21:21:00,73.1,64.7,29.80,SSE,148,2.3,2.3,75,0.00,SCT,,0.00,0.0,WeatherDisplay:10.37,2013-05-18 02:21:00,
2013-05-17 21:26:00,72.9,64.5,29.80,SE,138,2.3,2.3,75,0.00,SCT,,0.00,0.0,WeatherDisplay:10.37,2013-05-18 02:26:00,
2013-05-17 21:31:00,72.8,64.8,29.80,SE,143,1.2,1.2,76,0.00,SCT,,0.00,0.0,WeatherDisplay:10.37,2013-05-18 02:31:00,
2013-05-17 21:36:00,72.6,64.6,29.80,SE,135,2.3,2.3,76,0.00,SCT,,0.00,0.0,WeatherDisplay:10.37,2013-05-18 02:36:00,
2013-05-17 21:41:00,72.5,64.5,29.80,SE,131,1.2,1.4,76,0.00,SCT,,0.00,0.0,WeatherDisplay:10.37,2013-05-18 02:41:00,
2013-05-17 21:46:00,72.3,64.7,29.80,SSE,147,2.3,2.3,77,0.00,SCT,,0.00,0.0,WeatherDisplay:10.37,2013-05-18 02:46:00,
2013-05-17 21:51:00,72.1,64.5,29.80,ESE,121,3.5,3.5,77,0.00,SCT,,0.00,0.0,WeatherDisplay:10.37,2013-05-18 02:51:00,
2013-05-17 21:56:00,72.0,64.8,29.80,SE,138,4.6,4.6,78,0.00,SCT,,0.00,0.0,WeatherDisplay:10.37,2013-05-18 02:56:00,
2013-05-17 22:01:00,71.8,64.6,29.81,SE,143,2.0,2.0,78,0.00,FEW,,0.00,0.0,WeatherDisplay:10.37,2013-05-18 03:01:00,
2013-05-17 22:06:00,71.7,64.5,29.80,SE,146,0.0,0.6,78,0.00,FEW,,0.00,0.0,WeatherDisplay:10.37,2013-05-18 03:06:00,
2013-05-17 22:11:00,71.6,64.7,29.80,SSE,150,2.3,2.3,79,0.00,FEW,,0.00,0.0,WeatherDisplay:10.37,2013-05-18 03:11:00,
2013-05-17 22:16:00,71.5,64.6,29.80,ESE,117,2.3,2.3,79,0.00,FEW,,0.00,0.0,WeatherDisplay:10.37,2013-05-18 03:16:00,
2013-05-17 22:21:00,71.4,64.5,29.80,ESE,117,3.5,3.5,79,0.00,FEW,,0.00,0.0,WeatherDisplay:10.37,2013-05-18 03:21:00,
2013-05-17 22:26:00,71.3,64.4,29.81,South,169,1.2,1.2,79,0.00,FEW,,0.00,0.0,WeatherDisplay:10.37,2013-05-18 03:26:00,
2013-05-17 22:31:00,71.2,64.7,29.80,SE,143,3.5,3.5,80,0.00,FEW,,0.00,0.0,WeatherDisplay:10.37,2013-05-18 03:31:00,
2013-05-17 22:36:00,71.2,64.7,29.80,ESE,116,3.5,3.5,80,0.00,FEW,,0.00,0.0,WeatherDisplay:10.37,2013-05-18 03:36:00,
2013-05-17 22:41:00,71.1,64.6,29.80,SE,126,2.3,2.3,80,0.00,FEW,,0.00,0.0,WeatherDisplay:10.37,2013-05-18 03:41:00,
2013-05-17 22:46:00,71.0,64.5,29.81,South,169,3.0,3.0,80,0.00,FEW,,0.00,0.0,WeatherDisplay:10.37,2013-05-18 03:46:00,
2013-05-17 22:51:00,71.0,64.9,29.81,South,180,2.3,2.3,81,0.00,FEW,,0.00,0.0,WeatherDisplay:10.37,2013-05-18 03:51:00,
2013-05-17 22:56:00,70.9,64.8,29.81,SE,135,3.5,3.5,81,0.00,FEW,,0.00,0.0,WeatherDisplay:10.37,2013-05-18 03:56:00,
2013-05-17 23:01:00,70.8,64.7,29.80,SSE,166,2.3,2.3,81,0.00,FEW,,0.00,0.0,WeatherDisplay:10.37,2013-05-18 04:01:00,
2013-05-17 23:06:00,70.8,64.7,29.80,SE,125,4.0,4.0,81,0.00,FEW,,0.00,0.0,WeatherDisplay:10.37,2013-05-18 04:06:00,
2013-05-17 23:11:00,70.9,65.1,29.80,SE,136,1.0,0.0,82,0.00,SCT,,0.00,0.0,WeatherDisplay:10.37,2013-05-18 04:11:00,
2013-05-17 23:16:00,71.0,65.2,29.80,ESE,111,3.5,3.5,82,0.00,SCT,,0.00,0.0,WeatherDisplay:10.37,2013-05-18 04:16:00,
2013-05-17 23:21:00,71.1,65.3,29.81,SE,128,3.5,3.5,82,0.00,SCT,,0.00,0.0,WeatherDisplay:10.37,2013-05-18 04:21:00,
2013-05-17 23:26:00,71.1,65.3,29.80,ESE,120,3.5,3.5,82,0.00,SCT,,0.00,0.0,WeatherDisplay:10.37,2013-05-18 04:26:00,
2013-05-17 23:31:00,71.1,65.3,29.80,SE,136,2.3,2.3,82,0.00,SCT,,0.00,0.0,WeatherDisplay:10.37,2013-05-18 04:31:00,
2013-05-17 23:36:00,71.0,65.2,29.80,ESE,109,2.3,2.3,82,0.00,SCT,,0.00,0.0,WeatherDisplay:10.37,2013-05-18 04:36:00,
2013-05-17 23:41:00,70.8,65.4,29.80,SE,130,2.3,2.3,83,0.00,SCT,,0.00,0.0,WeatherDisplay:10.37,2013-05-18 04:41:00,
2013-05-17 23:46:00,70.7,65.3,29.80,ESE,123,2.3,2.3,83,0.00,SCT,,0.00,0.0,WeatherDisplay:10.37,2013-05-18 04:46:00,
2013-05-17 23:51:00,70.6,65.2,29.80,SE,144,0.0,0.0,83,0.00,SCT,,0.00,0.0,WeatherDisplay:10.37,2013-05-18 04:51:00,
2013-05-17 23:56:00,70.5,65.1,29.81,SE,145,0.0,0.0,83,0.00,SCT,,0.00,0.0,WeatherDisplay:10.37,2013-05-18 04:56:00,